Terug naar catalogus

COSMOS 970 DEB

ActiefLEO
NORAD 10563·DEBRIS·🇷🇺 Russia

Gelanceerd Dec 21, 1977 vanaf Baikonur Cosmodrome

Loading…

Volgende Passages (komende 24 uur)

TLE

VersSource: Space-Track

Epoch: Sep 13, 2026, 19:42 UTC

1 10563U 77121E   26256.82129288  .00000578  00000-0  48600-3 0  9995
2 10563  65.8446 131.0594 0108275 253.7081 105.2061 13.92944243449634

Volg COSMOS 970 DEB in realtime met AllMySat

Download on the App Store